Location: Bouilh
(43.3321°N, 0.2597°E)
Time: 14:09:17
(UTC+00:00)

Daily predictions for brighter satellites

Satellite Brightness Start Highest point End
(mag) Time Altitude Azimuth Time Altitude Azimuth Time Altitude Azimuth
CORIOLIS 4.2 17:27:23 10° SSE 17:32:45 83° ENE 17:38:07 10° NNW
Cosmos 1703 3.4 17:30:53 10° S 17:34:44 54° E 17:38:38 10° NNE
Cosmos 2237 Rocket 4.1 17:30:05 10° NW 17:35:11 36° WSW 17:40:15 10° S
Meteor 2-10 Rocket 3.4 17:30:35 10° N 17:35:47 71° ENE 17:40:48 10° SSE
STARLINK-67 4.3 17:37:22 10° S 17:39:07 17° SE 17:40:51 10° E
SL-8 Rocket 4.0 17:36:59 10° S 17:43:17 83° E 17:49:34 10° N
ATLAS CENTAUR R/B 1.1 17:40:28 10° NNW 17:44:28 83° NE 17:48:10 10° SE
Cosmos 1727 Rocket 4.2 17:38:39 10° N 17:44:38 48° ENE 17:50:34 10° SSE
Starlink AS 4.5 17:43:44 10° NNW 17:45:54 18° NNE 17:47:54 11° ENE
Starlink BA 4.5 17:43:55 10° NNW 17:46:05 19° NNE 17:48:05 11° ENE
Starlink AU 4.5 17:44:09 10° NNW 17:46:21 19° NNE 17:48:19 11° ENE
Starlink AT 4.5 17:44:24 10° NNW 17:46:35 19° NNE 17:48:33 11° ENE
Starlink BB 4.5 17:44:37 10° NNW 17:46:48 19° NNE 17:48:45 11° ENE
Starlink BC 4.5 17:44:50 10° NNW 17:47:02 19° NNE 17:48:58 11° ENE
Starlink BK 4.5 17:45:03 10° NNW 17:47:14 19° NNE 17:49:10 11° ENE
Starlink AY 4.5 17:45:18 10° NNW 17:47:29 19° NNE 17:49:24 11° ENE
Starlink AW 4.5 17:45:32 10° NNW 17:47:43 19° NNE 17:49:38 11° ENE
Starlink BJ 4.5 17:45:43 10° NNW 17:47:54 19° NNE 17:49:49 12° ENE
Starlink AV 4.5 17:45:58 10° NNW 17:48:10 19° NNE 17:50:03 12° ENE
Starlink BD 4.5 17:46:11 10° NNW 17:48:23 19° NNE 17:50:16 12° ENE
Starlink BE 4.5 17:46:21 10° NNW 17:48:35 19° NNE 17:50:30 12° ENE
Starlink BM 4.4 17:46:38 10° NNW 17:48:51 19° NNE 17:50:42 12° ENE
Starlink AX 4.4 17:46:50 10° NNW 17:49:03 19° NNE 17:50:54 12° ENE
Starlink BH 4.4 17:47:03 10° NNW 17:49:17 19° NNE 17:51:07 12° ENE
Starlink AZ 4.4 17:47:18 10° NNW 17:49:31 19° NNE 17:51:21 12° ENE
Starlink BG 4.4 17:47:31 10° NNW 17:49:44 19° NNE 17:51:33 12° ENE
Starlink BF 4.4 17:47:45 10° NNW 17:49:58 19° NNE 17:51:47 12° ENE
Starlink BL 4.4 17:47:55 10° NNW 17:50:10 19° NNE 17:52:00 12° ENE
USA 102 4.0 17:45:01 10° SE 17:50:20 39° ENE 17:52:30 10° N
Starlink AH 4.4 17:48:10 10° NNW 17:50:25 19° NNE 17:52:12 12° ENE
Starlink AC 4.4 17:48:24 10° NNW 17:50:38 19° NNE 17:52:25 12° ENE
Starlink X 4.4 17:48:37 10° NNW 17:50:51 19° NNE 17:52:38 12° ENE
Starlink AE 4.4 17:48:46 10° NNW 17:51:04 20° NNE 17:52:53 13° ENE
Starlink Z 4.4 17:49:03 10° NNW 17:51:18 19° NNE 17:53:04 13° ENE
Starlink AK 4.4 17:49:18 10° NNW 17:51:33 19° NNE 17:53:17 13° ENE
Starlink AL 4.4 17:49:31 10° NNW 17:51:46 20° NNE 17:53:30 13° ENE
Starlink AQ 4.4 17:49:44 10° NNW 17:51:59 20° NNE 17:53:43 13° ENE
Starlink AD 4.4 17:49:45 10° NNW 17:52:00 20° NNE 17:53:43 13° ENE
Starlink Y 4.4 17:50:12 10° NNW 17:52:27 20° NNE 17:54:09 13° ENE
Starlink AG 4.4 17:50:26 10° NNW 17:52:41 20° NNE 17:54:22 13° ENE
Starlink W 4.4 17:50:36 10° NNW 17:52:53 20° NNE 17:54:37 13° ENE
Starlink AJ 4.4 17:50:52 10° NNW 17:53:08 20° NNE 17:54:48 13° ENE
Starlink AM 4.4 17:51:19 10° NNW 17:53:35 20° NNE 17:55:14 13° ENE
Starlink AP 4.4 17:51:33 10° NNW 17:53:49 20° NNE 17:55:27 13° ENE
Starlink AA 4.4 17:51:45 10° NNW 17:54:02 20° NNE 17:55:40 14° ENE
YAOGAN 6 2.5 17:50:31 10° SSE 17:54:08 70° ENE 17:57:45 10° N
Starlink AF 4.4 17:51:59 10° NNW 17:54:16 20° NNE 17:55:53 14° ENE
Starlink AB 4.4 17:52:12 10° NNW 17:54:29 20° NNE 17:56:05 14° ENE
Starlink AN 4.4 17:52:26 10° NNW 17:54:43 20° NNE 17:56:20 14° ENE
CZ-2D R/B 4.2 17:56:56 10° SE 18:00:11 27° ENE 18:03:28 10° NNE
Starlink T 4.4 17:58:42 10° NW 18:01:27 24° NNE 18:03:10 16° ENE
SL-16 R/B 2.9 17:57:26 10° NNW 18:03:00 59° WSW 18:08:32 10° S
Cosmos 1953 Rocket 4.3 17:58:36 10° SSW 18:03:01 57° W 18:07:26 10° N
Starlink N 4.3 18:00:56 10° NW 18:03:43 24° NNE 18:05:20 17° ENE
Starlink AR 4.0 18:02:36 10° NNW 18:04:53 23° NNE 18:05:53 19° NE
Starlink Q 4.3 18:03:22 10° NW 18:06:11 25° NNE 18:07:42 18° ENE
Cosmos 1356 Rocket 3.3 18:02:30 10° N 18:06:37 78° E 18:10:45 10° SSE
Starlink P 4.3 18:05:41 10° NW 18:08:30 26° NNE 18:09:55 19° ENE
Cosmos 2227 4.4 18:03:16 10° S 18:08:46 51° ESE 18:14:17 10° NE
Shenzhou-11 Module 2.2 18:06:09 10° W 18:08:49 52° SSW 18:10:44 16° ESE
Cosmos 1842 Rocket 3.6 18:04:28 10° N 18:08:53 57° E 18:13:17 10° SSE
COSMO-SKYMED 1 2.5 18:05:09 10° NNE 18:09:31 80° ESE 18:13:51 10° S
Cosmos 1869 4.3 18:06:33 10° NNE 18:09:50 24° ENE 18:13:03 10° SE
Starlink U 4.2 18:07:59 10° NW 18:10:50 26° NNE 18:12:09 20° ENE
Cosmos 2297 Rocket 4.1 18:08:10 10° WSW 18:12:51 26° NW 18:17:35 10° N
Starlink B 4.2 18:10:18 10° NW 18:13:11 27° NNE 18:14:24 21° ENE
Cosmos 2263 Rocket 2.5 18:10:05 10° S 18:15:17 43° ESE 18:20:22 11° NE
Meteor 2-12 Rocket 4.4 18:10:00 10° S 18:15:58 68° E 18:21:59 10° NNE
Cosmos 1603 3.8 18:10:54 10° NNW 18:16:28 53° ENE 18:21:56 10° SE
Cosmos 1821 Rocket 4.2 18:12:00 10° SSE 18:18:03 49° E 18:24:04 10° NNE
ATLAS 3B R/B 4.1 18:16:00 10° SE 18:19:32 15° ESE 18:19:51 15° ESE
ISS -1.8 18:17:00 10° NW 18:19:35 20° N 18:21:01 16° NNE
USA 116 3.3 18:18:07 14° NNE 18:20:39 47° E 18:23:43 10° S
Cosmos 1939 Rocket 3.0 18:18:12 10° SSE 18:22:00 48° ENE 18:25:54 10° N
Envisat 4.3 18:20:44 10° S 18:25:33 43° W 18:30:23 10° NNW
Cosmos 2227 Rocket 4.3 18:22:20 10° WSW 18:26:46 23° NW 18:31:13 10° N
NOAA 11 4.1 18:21:47 10° SSE 18:27:14 70° ENE 18:32:42 10° N
USA 267 3.8 18:22:01 11° NE 18:28:02 53° NNW 18:34:20 10° WSW
NOSS 3-2 (C) 4.1 18:25:09 10° S 18:30:02 31° ESE 18:32:21 24° ENE
Cosmos 2221 2.4 18:26:06 10° N 18:30:24 72° E 18:34:43 10° SSE
Starlink D 3.8 18:28:03 10° NW 18:31:07 34° NNE 18:31:35 32° NE
H-2A R/B 3.3 18:33:08 21° NE 18:33:08 21° NE 18:36:12 10° NNE
Cosmos 1076 Rocket 3.7 18:29:21 10° SSE 18:33:29 47° E 18:37:40 10° NNE
Starlink S 3.7 18:30:28 10° NW 18:33:34 35° NNE 18:33:55 34° NE
CENTAUR R/B 3.4 18:29:03 10° SSE 18:33:44 26° ESE 18:35:03 24° E
Starlink C 3.7 18:32:50 10° NW 18:35:57 36° NNE 18:36:13 36° NE
Starlink E 3.6 18:35:16 10° NW 18:38:25 38° NNE 18:38:34 37° NE
Meteor 1-27 4.4 18:34:00 10° NNW 18:39:34 77° W 18:45:09 10° S
Starlink J 3.6 18:37:42 10° NW 18:40:52 39° NNE 18:40:56 39° NNE
Starlink V 3.6 18:40:07 10° NW 18:43:16 41° NNE 18:43:16 41° NNE
Cosmos 1943 3.1 18:38:12 10° NNW 18:43:51 68° ENE 18:49:29 10° SSE
Cosmos 1892 4.4 18:40:28 10° SSE 18:41:48 19° SE 18:41:48 19° SE
NOSS 3-2 (A) 3.3 18:40:06 10° SSW 18:45:42 63° ESE 18:49:29 24° NE
Starlink H 3.6 18:42:35 10° NW 18:45:38 42° NNE 18:45:38 42° NNE
Cosmos 1934 Rocket 4.0 18:40:03 10° SSE 18:45:49 49° E 18:51:37 10° NNE
Cosmos 2058 2.9 18:42:33 10° S 18:46:35 56° E 18:48:42 26° NNE
Atlas Centaur 2 4.0 18:44:53 10° SSW 18:46:51 13° S 18:49:00 10° SSE
Cosmos 2123 Rocket 4.1 18:41:11 10° N 18:47:17 49° ENE 18:53:18 10° SSE
Starlink F 3.5 18:45:01 10° NW 18:48:00 43° NNE 18:48:00 43° NNE
Cosmos 407 Rocket 3.4 18:43:09 10° NNW 18:48:26 75° ENE 18:53:37 10° SSE
SL-8 R/B 4.2 18:44:03 10° WNW 18:48:42 46° N 18:50:09 35° NE
Cosmos 1371 Rocket 3.8 18:45:02 10° SSW 18:50:11 77° ESE 18:54:20 16° NNE
CSL-04 Debris 4.4 18:45:04 10° S 18:50:27 74° WSW 18:55:53 10° NNW
Starlink G 3.6 18:47:28 10° NW 18:50:22 44° N 18:50:22 44° N
Cosmos 1000 Rocket 4.4 18:44:40 10° N 18:50:56 85° E 18:57:13 10° S
Cosmos 1190 Rocket 3.9 18:46:03 10° NNW 18:51:22 69° ENE 18:56:39 10° SSE
Starlink L 3.6 18:49:55 10° NW 18:52:43 44° N 18:52:43 44° N
Cosmos 2239 Rocket 4.4 18:48:27 10° S 18:54:46 83° E 19:01:07 10° N
Cosmos 1437 2.7 18:52:21 10° S 18:55:02 67° SSW 18:55:02 67° SSW
Starlink A 3.6 18:52:23 10° NW 18:55:06 44° N 18:55:06 44° N
Starlink R 3.7 18:54:50 10° NW 18:57:29 44° N 18:57:29 44° N
Starlink K 3.8 18:57:17 10° NW 18:59:51 43° NNW 18:59:51 43° NNW
USA 234 3.6 18:55:34 10° SE 19:02:02 64° SW 19:08:31 10° NW
Starlink M 3.9 18:59:44 10° NW 19:02:13 42° NNW 19:02:13 42° NNW
Cosmos 44 Rocket 4.5 18:58:48 10° WSW 19:03:16 38° NW 19:06:24 17° NNE
Cosmos 676 Rocket 4.1 18:59:00 10° NNW 19:04:14 54° ENE 19:05:10 48° ESE
ADEOS Rocket 3.3 18:58:33 10° NNE 19:05:33 79° ESE 19:13:09 10° S
CSL-04 Rocket 4.4 19:01:31 10° S 19:06:55 55° W 19:12:23 10° NNW
ATLAS 5 CENTAUR R/B 4.4 19:07:39 10° NNE 19:07:51 10° NNE 19:07:51 10° NNE
CZ-4 R/B 3.5 19:04:34 10° SSW 19:08:08 28° W 19:11:46 10° NW
YAOGAN 1 4.0 19:04:45 10° SSW 19:08:46 38° W 19:12:49 10° NNW
Ariane Rocket 2.8 19:03:46 10° SSE 19:08:49 74° ENE 19:13:54 10° N
Cosmos 1535 Rocket 4.4 19:06:05 10° S 19:12:24 80° E 19:18:49 10° N
OAO 3 Rocket 4.3 19:11:28 10° WSW 19:15:28 29° S 19:15:46 29° S
Cosmos 1624 Rocket 4.2 19:11:20 10° SSW 19:16:36 73° WNW 19:19:49 24° NNE
USA 238 DEB 3.9 19:21:00 10° SW 19:27:38 67° NW 19:31:14 30° NNE
USA 238 3.9 19:21:07 10° SW 19:27:45 68° NW 19:31:17 30° NNE
OAO 2 Rocket 4.5 19:25:27 10° WSW 19:29:31 31° S 19:29:31 31° S
BREEZE-M DEB (TANK) 3.8 19:19:01 10° WNW 19:30:55 60° N 19:31:14 59° NNE
Cosmos 2056 Rocket 4.2 19:27:53 10° SW 19:33:04 54° WNW 19:36:01 25° N
MOS 1 4.3 19:43:31 48° S 19:45:10 77° WSW 19:50:54 10° NNW
CZ-2C R/B 4.2 19:47:51 37° N 19:47:51 37° N 19:51:17 10° N
Cosmos 1140 Rocket 4.4 19:42:15 10° NNW 19:47:16 47° WSW 19:49:53 26° SSW
ARGOS 4.2 19:49:47 36° N 19:49:47 36° N 19:52:55 10° NNW
Cosmos 2263 Rocket 3.8 19:54:29 10° WSW 19:59:21 30° NW 20:02:08 20° N
ATLAS 3B R/B 3.2 20:02:30 10° SSW 20:07:10 48° SSW 20:07:10 48° SSW
H-2A R/B 3.6 20:13:44 29° NW 20:13:44 29° NW 20:16:25 10° NNW
NOSS 3-2 (C) 4.2 20:14:56 10° WSW 20:19:51 48° WNW 20:19:51 48° WNW
CENTAUR R/B 3.2 20:17:50 10° SW 20:22:18 49° W 20:22:18 49° W
